[[{"header":{"parameterUnit":"m.s-1","parameterCategory":1,"la1":30.2991,"la2":30.254,"lo1":-89.0895,"lo2":-89.0444,"dy":0.0017,"dx":0.0017,"nx":28,"ny":28,"refTime":"2024-07-03T03:00:00:Z","depth":0,"parameterNumber":2,"parameterNumberName":"U-component_of_WINDS"},"data":[0,0,0,0,0,0,0,0,0,0,0,0,0,0,0,0,0,0,0,0,0,0,0,0,0,0,0,0,0,0,0,0,0,0,0,0,0,0,0,0,0,0,0,0,0,0,0,0,0,0,0,0,0,0,0,0,0,0,0.1997,0.1998,0,0.2111,0.2113,0.2114,0.2155,0.2155,0.2154,0.2154,0.2273,0.2276,0.228,0,0,0,0,0,0,0,0,0,0,0,0,0,0.1814,0.1817,0.1997,0.1998,0.1999,0.2111,0.2113,0.2114,0.2155,0.2155,0.2154,0.2154,0.2272,0.2276,0.228,0,0,0,0,0,0,0,0,0,0,0,0,0,0.1907,0.1818,0.1996,0.2033,0.2038,0.2111,0.2113,0.2115,0.2155,0.2155,0.2154,0.2153,0.227,0.2276,0.2281,0.2326,0,0,0.2297,0.2299,0,0,0,0,0,0,0,0,0.1902,0.1914,0.2026,0.2031,0.2036,0.2118,0.2092,0.2186,0.2155,0.2111,0.2154,0.2153,0.2222,0.2231,0.2254,0.2332,0.2337,0.2298,0.2301,0.2303,0.2305,0,0,0,0,0,0,0,0.1896,0.1909,0.2042,0.2028,0.2034,0.2044,0.2057,0.211,0.2169,0.2115,0.2118,0.2131,0.2225,0.2249,0.2257,0.2339,0.2297,0.2302,0.2305,0.2308,0.2459,0.2459,0,0,0,0,0,0,0.1883,0.1904,0.2038,0.2046,0.1966,0.2048,0.2062,0.2093,0.2168,0.2179,0.2131,0.2132,0.224,0.2251,0.2262,0.232,0.2303,0.2308,0.2311,0.2458,0.2459,0.246,0,0,0,0,0,0,0.1879,0.1894,0.2034,0.1976,0.1994,0.2052,0.2086,0.2095,0.212,0.2181,0.2191,0.2145,0.224,0.2254,0.231,0.2324,0.231,0.2315,0.2457,0.2458,0.2459,0.2436,0,0,0,0,0,0,0.1873,0.1893,0.191,0.1976,0.1997,0.2079,0.2087,0.2098,0.2128,0.2131,0.2197,0.2207,0.2241,0.2301,0.2315,0.2332,0.2319,0.2456,0.2457,0.2459,0.2436,0.2436,0.2437,0,0,0,0,0,0.1867,0.1899,0.1911,0.1927,0.202,0.208,0.2093,0.213,0.2129,0.2148,0.2187,0.2205,0.232,0.2307,0.2322,0.2341,0.2455,0.2457,0.2459,0.2435,0.2436,0.2437,0,0,0,0,0,0,0.1835,0.1909,0.1922,0.1977,0.2022,0.2087,0.2111,0.213,0.2176,0.2177,0.2222,0.2236,0.2288,0.232,0.2304,0.2388,0.2389,0.2394,0.2366,0.2367,0.2367,0.2359,0.2324,0,0,0,0,0,0.1834,0.1876,0.1939,0.1981,0.2003,0.2053,0.2081,0.2106,0.2154,0.2174,0.2217,0.2263,0.231,0.234,0.2387,0.244,0.2455,0.246,0.2461,0.2461,0.2465,0.2496,0.2499,0.2466,0.2466,0.2466,0,0,0.1834,0.1879,0.1903,0.1976,0.2014,0.2057,0.2069,0.2114,0.2146,0.2181,0.2236,0.2269,0.2324,0.2378,0.2404,0.2406,0.2477,0.2463,0.2463,0.2467,0.2498,0.2501,0.2504,0.2467,0.2467,0.2467,0,0,0.1854,0.1893,0.1932,0.197,0.2026,0.2059,0.2069,0.2131,0.2154,0.2209,0.2236,0.2275,0.2355,0.2393,0.2423,0.2457,0.2476,0.2471,0.2474,0.2503,0.2506,0.2508,0.2521,0.2525,0.2475,0.2475,0.2475,0,0.1847,0.1912,0.1951,0.1994,0.2026,0.2058,0.2098,0.2133,0.2202,0.2223,0.2224,0.2324,0.2363,0.2427,0.2435,0.2458,0.2471,0.2464,0.2502,0.2505,0.2508,0.2521,0.2525,0.2474,0.2474,0.2474,0.2474,0,0.19,0.1945,0.197,0.2035,0.2069,0.2111,0.2156,0.2186,0.2208,0.224,0.2297,0.2345,0.2402,0.2418,0.2441,0.2485,0.2485,0.2493,0.2495,0.251,0.2522,0.2527,0.2473,0.2473,0.2473,0.2473,0,0,0.1905,0.199,0.1999,0.2028,0.2093,0.2129,0.2172,0.2226,0.2251,0.2298,0.2335,0.2401,0.241,0.2443,0.247,0.2495,0.2519,0.2501,0.2503,0.2503,0.2572,0.2566,0.257,0.2532,0.2533,0.2534,0.2568,0,0.1934,0.2012,0.2048,0.211,0.2152,0.2183,0.2221,0.2264,0.2296,0.2336,0.2372,0.2418,0.2425,0.2446,0.2472,0.2511,0.2534,0.2509,0.2568,0.2569,0.2553,0.2577,0.257,0.26,0.2573,0.2573,0.2574,0,0.1979,0.2025,0.2091,0.215,0.2169,0.2202,0.2255,0.2293,0.2343,0.2365,0.2402,0.2427,0.2474,0.2471,0.2537,0.2519,0.2545,0.2567,0.2569,0.2577,0.2573,0.2585,0.2611,0.2615,0.2582,0.2581,0.2581,0,0.1977,0.2055,0.2104,0.2129,0.2199,0.2221,0.2252,0.2301,0.2332,0.2378,0.2398,0.2449,0.2478,0.2517,0.2555,0.255,0.2617,0.2618,0.2636,0.2635,0.265,0.2648,0.268,0.2665,0.2665,0.2665,0.2665,0,0.2006,0.2046,0.2104,0.2135,0.218,0.222,0.2264,0.2296,0.234,0.2378,0.2407,0.2442,0.249,0.2532,0.2562,0.2611,0.2624,0.2643,0.265,0.264,0.2638,0.2659,0.2658,0.2666,0.2666,0.2666,0.2666,0,0.2011,0.2052,0.2108,0.2169,0.2186,0.2216,0.2269,0.23,0.2333,0.238,0.2393,0.2445,0.2495,0.2536,0.2602,0.2623,0.2674,0.2683,0.2657,0.2661,0.2677,0.2675,0.2724,0.2732,0.2711,0.2711,0.2711,0,0.2028,0.2059,0.2123,0.215,0.218,0.2223,0.2254,0.2295,0.2326,0.2385,0.2409,0.2461,0.2504,0.2582,0.2626,0.2676,0.2687,0.27,0.2695,0.2683,0.2688,0.2685,0.2689,0.2701,0.2701,0.2701,0.2701,0,0.2053,0.2071,0.2115,0.2165,0.2201,0.2243,0.2285,0.2306,0.2355,0.2388,0.2439,0.2473,0.2539,0.259,0.2645,0.2677,0.2697,0.2702,0.2709,0.2699,0.2683,0.2693,0.2658,0.2701,0.2701,0.2701,0.2701,0.2701,0.2065,0.2094,0.2143,0.219,0.2226,0.2265,0.2297,0.2334,0.2376,0.2433,0.2455,0.2507,0.2556,0.2632,0.2663,0.2705,0.2708,0.2718,0.272,0.2722,0.2721,0.2676,0.2715,0.2715,0.2715,0.2715,0.2715,0,0.2092,0.2125,0.2168,0.2226,0.2263,0.2278,0.2326,0.2356,0.2401,0.2445,0.2487,0.2545,0.2594,0.2641,0.2693,0.2717,0.2728,0.273,0.2729,0.2736,0.2715,0.2704,0.272,0.272,0.272,0.272,0.272,0.272,0.211,0.216,0.2184,0.2251,0.2284,0.2335,0.2361,0.2397,0.2432,0.2496,0.2537,0.2567,0.2612,0.2667,0.2713,0.2726,0.2744,0.2743,0.2758,0.2738,0.2737,0.2736,0.2726,0.2746,0.2746,0.2775,0.2775,0.2776]},{"header":{"parameterUnit":"m.s-1","parameterCategory":1,"la1":30.2991,"la2":30.254,"lo1":-89.0895,"lo2":-89.0444,"dy":0.0017,"dx":0.0017,"nx":28,"ny":28,"refTime":"2024-07-03T03:00:00:Z","depth":0,"parameterNumber":3,"parameterNumberName":"V-component_of_WINDS"},"data":[0,0,0,0,0,0,0,0,0,0,0,0,0,0,0,0,0,0,0,0,0,0,0,0,0,0,0,0,0,0,0,0,0,0,0,0,0,0,0,0,0,0,0,0,0,0,0,0,0,0,0,0,0,0,0,0,0,0,4.8105,4.8105,0,4.8159,4.816,4.816,4.8137,4.8135,4.8134,4.8133,4.8182,4.8185,4.8187,0,0,0,0,0,0,0,0,0,0,0,0,0,4.7976,4.7978,4.8105,4.8105,4.8106,4.8159,4.816,4.816,4.8137,4.8135,4.8134,4.8132,4.8182,4.8185,4.8188,0,0,0,0,0,0,0,0,0,0,0,0,0,4.8031,4.7979,4.8105,4.8101,4.8101,4.8159,4.816,4.8161,4.8137,4.8135,4.8133,4.8131,4.8181,4.8184,4.8188,4.8251,0,0,4.82,4.8201,0,0,0,0,0,0,0,0,4.8028,4.8036,4.8101,4.8101,4.8102,4.8139,4.8132,4.8191,4.8138,4.8123,4.8133,4.813,4.8169,4.8174,4.8188,4.8253,4.8255,4.82,4.8202,4.8204,4.8205,0,0,0,0,0,0,0,4.8024,4.8033,4.8126,4.8102,4.8102,4.8095,4.8101,4.8143,4.8156,4.8124,4.8123,4.813,4.8169,4.8185,4.8189,4.8256,4.82,4.8203,4.8206,4.8207,4.8376,4.8378,0,0,0,0,0,0,4.8021,4.803,4.8124,4.8128,4.8059,4.8099,4.8105,4.8129,4.8156,4.8158,4.8132,4.8129,4.8179,4.8185,4.8191,4.8267,4.8204,4.8208,4.821,4.8374,4.8377,4.8379,0,0,0,0,0,0,4.8018,4.8029,4.8122,4.8079,4.809,4.8103,4.813,4.8131,4.8147,4.8161,4.8163,4.8145,4.8178,4.8185,4.8237,4.8268,4.8209,4.8213,4.8371,4.8375,4.8378,4.8419,0,0,0,0,0,0,4.8015,4.8029,4.8054,4.8079,4.8092,4.8169,4.8132,4.8134,4.8154,4.8151,4.8175,4.8177,4.8177,4.8231,4.8241,4.8272,4.8216,4.8369,4.8373,4.8377,4.8415,4.8423,4.843,0,0,0,0,0,4.801,4.8061,4.8055,4.8067,4.8124,4.8171,4.8178,4.8178,4.8157,4.8181,4.8191,4.8176,4.8263,4.8237,4.8247,4.828,4.8367,4.8372,4.8377,4.8411,4.8421,4.843,0,0,0,0,0,0,4.8036,4.8065,4.8058,4.812,4.8143,4.8167,4.8197,4.8189,4.8217,4.8213,4.8211,4.8216,4.827,4.828,4.825,4.8343,4.8311,4.8319,4.8334,4.8344,4.8352,4.8348,4.8219,0,0,0,0,0,4.805,4.8087,4.8109,4.8161,4.8174,4.8184,4.8204,4.8203,4.8226,4.8235,4.8249,4.827,4.8303,4.8324,4.8355,4.8416,4.8421,4.8444,4.8452,4.8459,4.8465,4.8499,4.8509,4.8395,4.8395,4.8395,0,0,4.8077,4.8097,4.812,4.8167,4.8185,4.8222,4.8192,4.8232,4.826,4.8241,4.8291,4.8302,4.8326,4.8383,4.8409,4.8393,4.8497,4.8465,4.847,4.8472,4.8505,4.8516,4.8525,4.8399,4.8398,4.8398,0,0,4.8146,4.8165,4.8211,4.8231,4.826,4.8267,4.8278,4.8303,4.831,4.8361,4.8348,4.8379,4.8435,4.8453,4.847,4.8548,4.8535,4.8558,4.8598,4.8631,4.864,4.8648,4.8676,4.8686,4.8564,4.8564,4.8564,0,4.8175,4.8233,4.8235,4.8278,4.8299,4.8286,4.8332,4.835,4.8387,4.8401,4.8384,4.8455,4.847,4.8531,4.8551,4.8564,4.8576,4.8554,4.8639,4.8647,4.8654,4.8681,4.8692,4.8566,4.8566,4.8566,4.8566,0,4.8268,4.8308,4.8341,4.838,4.8405,4.8449,4.8457,4.8481,4.8478,4.8486,4.8538,4.8556,4.8591,4.8606,4.8602,4.8667,4.8657,4.8639,4.8607,4.8668,4.8693,4.8703,4.857,4.8569,4.8568,4.8568,0,0,4.8353,4.8395,4.8407,4.8425,4.8457,4.8487,4.853,4.8566,4.8587,4.8613,4.8649,4.8697,4.8683,4.8701,4.87,4.8729,4.879,4.8708,4.8709,4.8723,4.8863,4.8876,4.8888,4.8782,4.8784,4.8786,4.8861,0,4.8424,4.8503,4.8507,4.8577,4.8614,4.8604,4.8642,4.8665,4.8674,4.8705,4.8714,4.8749,4.8726,4.8738,4.8767,4.8777,4.8818,4.8771,4.8814,4.8816,4.8808,4.8901,4.8914,4.8984,4.8871,4.8872,4.8874,0,4.8518,4.855,4.8625,4.8653,4.8669,4.8703,4.8737,4.8768,4.8793,4.8798,4.882,4.8815,4.8858,4.8826,4.8885,4.8853,4.8871,4.8878,4.8881,4.8884,4.8848,4.8906,4.9006,4.9017,4.8889,4.8888,4.8887,0,4.8573,4.8634,4.8687,4.8703,4.8737,4.8761,4.8776,4.88,4.8822,4.8852,4.8866,4.8899,4.8917,4.8942,4.8946,4.8922,4.9005,4.8973,4.9009,4.9009,4.9026,4.9025,4.913,4.9038,4.9038,4.9038,4.9038,0,4.8652,4.8698,4.8713,4.8745,4.8797,4.8801,4.8851,4.8864,4.8886,4.892,4.8912,4.8944,4.8947,4.8979,4.8982,4.903,4.9038,4.9042,4.9042,4.9043,4.9043,4.9054,4.9049,4.9041,4.904,4.904,4.9039,0,4.8721,4.8733,4.8791,4.882,4.8828,4.8865,4.8888,4.8919,4.8928,4.8971,4.8981,4.8995,4.9033,4.9039,4.9083,4.9085,4.9143,4.9138,4.9135,4.9134,4.9171,4.9167,4.9287,4.9303,4.9201,4.9202,4.9202,0,4.8771,4.8807,4.884,4.8864,4.8881,4.8918,4.8942,4.8947,4.8972,4.9005,4.9031,4.9069,4.9099,4.916,4.9172,4.9206,4.9201,4.9241,4.9206,4.9206,4.9202,4.92,4.9204,4.9248,4.9249,4.925,4.925,0,4.8857,4.8862,4.8897,4.8936,4.8964,4.8994,4.9021,4.904,4.9049,4.9077,4.9117,4.9141,4.9187,4.9224,4.9258,4.9271,4.9262,4.9262,4.9272,4.9272,4.9269,4.9272,4.9153,4.9258,4.9258,4.9257,4.9257,4.9256,4.8918,4.895,4.898,4.902,4.9042,4.9068,4.9099,4.9114,4.9148,4.9188,4.9188,4.9232,4.9257,4.9302,4.9318,4.9351,4.9338,4.9353,4.9357,4.936,4.9364,4.9265,4.9357,4.9357,4.9357,4.9357,4.9356,0,4.9005,4.9024,4.9061,4.9102,4.9133,4.9125,4.9155,4.9181,4.9221,4.9246,4.9277,4.9323,4.936,4.9376,4.9412,4.9435,4.9432,4.9444,4.9442,4.9446,4.9373,4.9361,4.9447,4.9446,4.9446,4.9446,4.9446,4.9446,4.9053,4.9108,4.9116,4.9181,4.9199,4.9244,4.9262,4.9286,4.9307,4.936,4.9391,4.9403,4.9425,4.9462,4.9495,4.9499,4.9512,4.9526,4.9528,4.946,4.9451,4.9442,4.943,4.9529,4.9529,4.9598,4.9598,4.9599]}]]